| time (UTC) | temp F | wind direction | speed knots | gust knots | rain 1hr in | rain 24hr in | rain mn in | humidity % | barometer mb |
| 20260507202644 | 62 | 301 | 2.6 | 6.1 | 0.00 | 0.18 | 0.02 | 40 | 1005.2 |
| 20260507201645 | 62 | 260 | 2.6 | 5.2 | 0.00 | 0.19 | 0.02 | 38 | 1005.2 |
| 20260507200645 | 63 | 55 | 1.7 | 6.1 | 0.00 | 0.20 | 0.02 | 40 | 1005.3 |
| 20260507195644 | 63 | 349 | 2.6 | 6.1 | 0.00 | 0.21 | 0.02 | 40 | 1005.4 |
| 20260507194645 | 63 | 51 | 2.6 | 7.0 | 0.00 | 0.21 | 0.02 | 41 | 1005.4 |
| 20260507194126 | 63 | 246 | 2.6 | 5.2 | 0.00 | 0.21 | 0.02 | 42 | 1005.5 |
| 20260507192641 | 64 | 296 | 2.6 | 7.8 | 0.00 | 0.21 | 0.02 | 37 | 1005.6 |
| 20260507191640 | 64 | 76 | 1.7 | 7.8 | 0.00 | 0.21 | 0.02 | 40 | 1005.6 |
| 20260507190640 | 64 | 190 | 1.7 | 6.1 | 0.00 | 0.22 | 0.02 | 37 | 1005.8 |
| 20260507185641 | 64 | 301 | 2.6 | 7.8 | 0.00 | 0.22 | 0.02 | 38 | 1006.0 |
| 20260507184641 | 65 | 277 | 2.6 | 7.0 | 0.00 | 0.23 | 0.02 | 39 | 1006.0 |
| 20260507183638 | 65 | 32 | 3.5 | 9.6 | 0.00 | 0.23 | 0.02 | 38 | 1006.1 |
| 20260507183121 | 66 | 214 | 2.6 | 5.2 | 0.00 | 0.24 | 0.02 | 37 | 1006.1 |
| 20260507181638 | 66 | 19 | 2.6 | 7.0 | 0.00 | 0.24 | 0.02 | 39 | 1006.1 |
| 20260507180639 | 65 | 44 | 1.7 | 6.1 | 0.00 | 0.24 | 0.02 | 37 | 1006.4 |
| 20260507175636 | 65 | 268 | 2.6 | 5.2 | 0.00 | 0.24 | 0.02 | 40 | 1006.4 |
| 20260507174637 | 65 | 4 | 2.6 | 6.1 | 0.00 | 0.24 | 0.02 | 39 | 1006.4 |
| 20260507173636 | 65 | 277 | 1.7 | 6.1 | 0.00 | 0.24 | 0.02 | 40 | 1006.1 |
| 20260507172634 | 65 | 89 | 1.7 | 7.8 | 0.00 | 0.24 | 0.02 | 46 | 1006.2 |
| 20260507171635 | 64 | 27 | 2.6 | 7.0 | 0.00 | 0.24 | 0.02 | 39 | 1006.2 |
| 20260507170635 | 64 | 289 | 2.6 | 6.1 | 0.00 | 0.24 | 0.02 | 40 | 1006.5 |
| 20260507165634 | 64 | 258 | 2.6 | 8.7 | 0.00 | 0.24 | 0.02 | 46 | 1006.6 |
| 20260507164634 | 64 | 22 | 2.6 | 7.8 | 0.00 | 0.24 | 0.02 | 44 | 1006.6 |
| 20260507164114 | 64 | 316 | 2.6 | 7.0 | 0.00 | 0.24 | 0.02 | 50 | 1007.0 |
| 20260507162635 | 63 | 273 | 2.6 | 8.7 | 0.00 | 0.24 | 0.02 | 48 | 1007.1 |
| 20260507161635 | 63 | 310 | 2.6 | 6.1 | 0.00 | 0.24 | 0.02 | 52 | 1007.1 |
| 20260507160635 | 63 | 285 | 2.6 | 7.0 | 0.00 | 0.24 | 0.02 | 51 | 1007.2 |
| 20260507155625 | 62 | 19 | 2.6 | 7.8 | 0.00 | 0.24 | 0.02 | 54 | 1007.1 |
| 20260507155532 | 61 | 285 | 2.6 | 7.0 | 0.00 | 0.24 | 0.02 | 56 | 1007.1 |
| 20260507153624 | 60 | 212 | 1.7 | 5.2 | 0.00 | 0.24 | 0.02 | 60 | 1007.4 |
| 20260507152625 | 60 | 301 | 1.7 | 5.2 | 0.00 | 0.24 | 0.02 | 58 | 1007.4 |
| 20260507152110 | 59 | 276 | 1.7 | 6.1 | 0.00 | 0.24 | 0.02 | 63 | 1007.4 |
| 20260507151106 | 58 | 148 | 1.7 | 4.3 | 0.00 | 0.24 | 0.02 | 62 | 1007.6 |
| 20260507145616 | 58 | 268 | 0.9 | 3.5 | 0.00 | 0.24 | 0.02 | 63 | 1007.6 |
| 20260507145058 | 58 | 279 | 2.6 | 6.1 | 0.00 | 0.24 | 0.02 | 63 | 1007.6 |
| 20260507143615 | 58 | 246 | 2.6 | 5.2 | 0.00 | 0.24 | 0.02 | 69 | 1007.6 |
| 20260507142614 | 57 | 208 | 1.7 | 6.1 | 0.00 | 0.24 | 0.02 | 69 | 1007.6 |
| 20260507141613 | 56 | 266 | 2.6 | 6.1 | 0.00 | 0.24 | 0.02 | 68 | 1007.6 |
| 20260507140614 | 56 | 301 | 0.9 | 3.5 | 0.00 | 0.24 | 0.02 | 74 | 1007.6 |
| 20260507135614 | 55 | 301 | 0.9 | 4.3 | 0.00 | 0.24 | 0.02 | 72 | 1007.6 |
| 20260507134612 | 55 | 73 | 1.7 | 4.3 | 0.00 | 0.24 | 0.02 | 72 | 1007.6 |
| 20260507134100 | 54 | 154 | 0.9 | 5.2 | 0.00 | 0.24 | 0.02 | 75 | 1007.5 |
| 20260507132610 | 54 | 193 | 1.7 | 4.3 | 0.00 | 0.24 | 0.02 | 77 | 1007.6 |
| 20260507132044 | 53 | 56 | 1.7 | 4.3 | 0.00 | 0.24 | 0.02 | 78 | 1007.6 |
| 20260507130609 | 52 | 73 | 1.7 | 4.3 | 0.00 | 0.24 | 0.02 | 80 | 1007.8 |
| 20260507125608 | 51 | 296 | 0.9 | 4.3 | 0.00 | 0.24 | 0.02 | 82 | 1007.8 |
| 20260507124607 | 51 | 301 | 1.7 | 4.3 | 0.00 | 0.24 | 0.02 | 84 | 1007.8 |
| 20260507123559 | 50 | 44 | 1.7 | 6.1 | 0.00 | 0.24 | 0.02 | 84 | 1008.0 |
| 20260507122601 | 49 | 2 | 2.6 | 5.2 | 0.00 | 0.24 | 0.02 | 85 | 1008.1 |
| 20260507121558 | 49 | 34 | 0.9 | 4.3 | 0.00 | 0.24 | 0.02 | 87 | 1008.1 |
| 20260507120558 | 48 | 98 | 0.9 | 2.6 | 0.00 | 0.24 | 0.02 | 89 | 1008.1 |
| 20260507115559 | 48 | 221 | 0.9 | 3.5 | 0.00 | 0.24 | 0.02 | 90 | 1008.0 |
| 20260507114548 | 47 | 301 | 0.0 | 0.0 | 0.00 | 0.24 | 0.02 | 91 | 1008.0 |
| 20260507113549 | 47 | 301 | 0.0 | 0.0 | 0.00 | 0.24 | 0.02 | 91 | 1008.0 |
| 20260507112546 | 47 | 301 | 0.0 | 0.0 | 0.00 | 0.24 | 0.02 | 91 | 1007.8 |
| 20260507111547 | 47 | 133 | 0.0 | 0.0 | 0.00 | 0.24 | 0.02 | 91 | 1007.8 |
| 20260507110532 | 46 | 301 | 0.0 | 0.0 | 0.00 | 0.24 | 0.02 | 91 | 1007.7 |
| 20260507105532 | 46 | 133 | 0.0 | 0.0 | 0.00 | 0.24 | 0.02 | 91 | 1007.8 |
| 20260507104533 | 46 | 133 | 0.0 | 0.0 | 0.00 | 0.24 | 0.02 | 90 | 1007.8 |
| 20260507103530 | 46 | 133 | 0.0 | 0.0 | 0.00 | 0.24 | 0.02 | 90 | 1007.1 |
| 20260507102529 | 46 | 133 | 0.0 | 0.0 | 0.00 | 0.24 | 0.02 | 90 | 1007.2 |
| 20260507101529 | 46 | 301 | 0.0 | 0.0 | 0.00 | 0.24 | 0.02 | 90 | 1007.2 |
| 20260507100531 | 46 | 301 | 0.0 | 1.7 | 0.00 | 0.24 | 0.02 | 90 | 1007.1 |
| 20260507095528 | 47 | 301 | 0.0 | 0.9 | 0.00 | 0.24 | 0.02 | 90 | 1007.1 |
| 20260507094528 | 47 | 301 | 0.9 | 1.7 | 0.00 | 0.24 | 0.02 | 90 | 1007.1 |
| 20260507093525 | 47 | 301 | 0.0 | 0.0 | 0.00 | 0.24 | 0.02 | 90 | 1007.4 |
| 20260507092525 | 47 | 134 | 0.0 | 0.9 | 0.00 | 0.24 | 0.02 | 90 | 1007.5 |
| 20260507091523 | 47 | 301 | 0.0 | 1.7 | 0.00 | 0.24 | 0.02 | 90 | 1007.5 |
| 20260507091347 | 47 | 301 | 0.0 | 1.7 | 0.00 | 0.24 | 0.02 | 90 | 1007.3 |
| 20260507090536 | 47 | 301 | 0.0 | 0.9 | 0.00 | 0.24 | 0.02 | 90 | 1007.5 |
| 20260507084509 | 47 | 301 | 0.0 | 0.0 | 0.00 | 0.24 | 0.02 | 90 | 1007.6 |
| 20260507083511 | 48 | 301 | 0.0 | 0.0 | 0.01 | 0.24 | 0.02 | 90 | 1007.6 |
| 20260507082510 | 48 | 301 | 0.0 | 0.9 | 0.01 | 0.24 | 0.02 | 90 | 1007.2 |
| 20260507081510 | 48 | 301 | 0.0 | 0.0 | 0.01 | 0.24 | 0.02 | 91 | 1007.1 |
| 20260507080510 | 49 | 133 | 0.0 | 0.9 | 0.01 | 0.24 | 0.02 | 91 | 1007.1 |
| 20260507075500 | 49 | 301 | 0.0 | 2.6 | 0.01 | 0.24 | 0.02 | 91 | 1007.1 |
| 20260507074501 | 49 | 119 | 0.0 | 0.9 | 0.01 | 0.24 | 0.02 | 91 | 1007.5 |
| 20260507073943 | 49 | 301 | 0.0 | 0.0 | 0.00 | 0.23 | 0.01 | 91 | 1007.5 |
| 20260507072457 | 50 | 301 | 0.0 | 0.0 | 0.00 | 0.23 | 0.01 | 91 | 1006.6 |
| 20260507071934 | 50 | 301 | 0.0 | 0.0 | 0.00 | 0.23 | 0.01 | 91 | 1006.6 |
| 20260507070455 | 50 | 301 | 0.0 | 0.9 | 0.00 | 0.23 | 0.01 | 91 | 1006.6 |
| 20260507065456 | 51 | 301 | 0.0 | 0.0 | 0.00 | 0.23 | 0.01 | 91 | 1006.4 |
| 20260507064456 | 51 | 117 | 0.0 | 1.7 | 0.00 | 0.23 | 0.01 | 91 | 1006.5 |
| 20260507063455 | 51 | 117 | 0.0 | 1.7 | 0.00 | 0.23 | 0.01 | 91 | 1006.5 |
| 20260507062455 | 51 | 112 | 0.0 | 0.0 | 0.00 | 0.23 | 0.01 | 91 | 1006.5 |
| 20260507061456 | 51 | 112 | 0.0 | 0.0 | 0.00 | 0.23 | 0.01 | 91 | 1006.5 |
| 20260507060446 | 52 | 112 | 0.0 | 0.0 | 0.00 | 0.23 | 0.01 | 91 | 1006.5 |
| 20260507055445 | 52 | 112 | 0.0 | 0.0 | 0.00 | 0.23 | 0.01 | 92 | 1006.5 |
| 20260507054446 | 52 | 112 | 0.0 | 0.0 | 0.00 | 0.23 | 0.01 | 91 | 1007.1 |
| 20260507053929 | 53 | 112 | 0.0 | 0.0 | 0.00 | 0.23 | 0.01 | 92 | 1007.1 |
| 20260507052446 | 53 | 112 | 0.0 | 0.0 | 0.00 | 0.23 | 0.01 | 92 | 1006.6 |
| 20260507051446 | 53 | 112 | 0.0 | 0.0 | 0.01 | 0.23 | 0.01 | 92 | 1007.1 |
| 20260507050912 | 54 | 112 | 0.0 | 0.9 | 0.01 | 0.23 | 0.01 | 92 | 1007.1 |
| 20260507045435 | 54 | 112 | 0.0 | 2.6 | 0.01 | 0.23 | 0.01 | 92 | 1006.6 |
| 20260507044435 | 54 | 301 | 0.0 | 0.0 | 0.02 | 0.23 | 0.01 | 92 | 1006.6 |
| 20260507043435 | 55 | 301 | 0.0 | 0.0 | 0.03 | 0.23 | 0.01 | 92 | 1006.6 |
| 20260507042436 | 55 | 301 | 0.0 | 0.0 | 0.03 | 0.23 | 0.01 | 92 | 1006.6 |
| 20260507041436 | 55 | 301 | 0.0 | 0.0 | 0.02 | 0.22 | 0.00 | 92 | 1006.7 |
| 20260507040434 | 56 | 301 | 0.0 | 0.0 | 0.02 | 0.22 | 0.00 | 92 | 1006.7 |
| 20260507035430 | 56 | 296 | 0.0 | 0.0 | 0.02 | 0.22 | 0.22 | 93 | 1006.5 |
| 20260507034430 | 56 | 301 | 0.9 | 2.6 | 0.01 | 0.21 | 0.21 | 93 | 1006.2 |
| 20260507033432 | 57 | 271 | 0.0 | 0.0 | 0.00 | 0.20 | 0.20 | 93 | 1006.2 |
| 20260507032431 | 57 | 270 | 0.0 | 1.7 | 0.01 | 0.20 | 0.20 | 93 | 1006.0 |
| 20260507031431 | 57 | 270 | 0.9 | 3.5 | 0.01 | 0.20 | 0.20 | 93 | 1005.5 |
| 20260507030429 | 58 | 301 | 0.9 | 5.2 | 0.01 | 0.20 | 0.20 | 93 | 1005.5 |
| 20260507025429 | 58 | 301 | 0.0 | 4.3 | 0.01 | 0.20 | 0.20 | 93 | 1005.5 |
| 20260507024429 | 58 | 301 | 0.0 | 0.0 | 0.01 | 0.20 | 0.20 | 93 | 1005.5 |
| 20260507023428 | 58 | 198 | 1.7 | 4.3 | 0.01 | 0.20 | 0.20 | 93 | 1005.5 |
| 20260507022430 | 58 | 184 | 0.9 | 2.6 | 0.00 | 0.19 | 0.19 | 93 | 1005.5 |
| 20260507021426 | 58 | 183 | 0.0 | 2.6 | 0.00 | 0.19 | 0.19 | 93 | 1005.1 |
| 20260507020903 | 58 | 197 | 0.9 | 3.5 | 0.00 | 0.19 | 0.19 | 93 | 1005.1 |
| 20260507015426 | 58 | 203 | 0.0 | 2.6 | 0.00 | 0.19 | 0.19 | 93 | 1005.4 |
| 20260507014904 | 58 | 202 | 0.9 | 3.5 | 0.00 | 0.19 | 0.19 | 93 | 1005.3 |
| 20260507013426 | 58 | 204 | 0.9 | 3.5 | 0.00 | 0.19 | 0.19 | 93 | 1005.3 |
| 20260507012428 | 58 | 195 | 1.7 | 5.2 | 0.00 | 0.19 | 0.19 | 93 | 1005.3 |
| 20260507011844 | 58 | 217 | 2.6 | 7.0 | 0.00 | 0.19 | 0.19 | 93 | 1005.4 |
| 20260507011452 | 58 | 185 | 2.6 | 6.1 | 0.00 | 0.19 | 0.19 | 93 | 1005.4 |
| 20260507005415 | 58 | 189 | 2.6 | 6.1 | 0.00 | 0.19 | 0.19 | 93 | 1005.5 |
| 20260507004416 | 58 | 156 | 2.6 | 7.8 | 0.00 | 0.19 | 0.19 | 93 | 1005.2 |
| 20260507003416 | 58 | 190 | 2.6 | 8.7 | 0.00 | 0.19 | 0.19 | 93 | 1005.2 |
| 20260507002416 | 58 | 231 | 1.7 | 6.1 | 0.00 | 0.19 | 0.19 | 93 | 1005.0 |
| 20260507001417 | 58 | 194 | 1.7 | 5.2 | 0.00 | 0.19 | 0.19 | 92 | 1005.2 |
| 20260507000414 | 58 | 200 | 1.7 | 7.8 | 0.01 | 0.19 | 0.19 | 93 | 1005.2 |
| 20260506235414 | 58 | 167 | 1.7 | 4.3 | 0.02 | 0.19 | 0.19 | 92 | 1005.0 |
| 20260506234414 | 58 | 177 | 1.7 | 6.1 | 0.03 | 0.19 | 0.19 | 92 | 1005.0 |
| 20260506233415 | 58 | 206 | 1.7 | 6.1 | 0.04 | 0.19 | 0.19 | 92 | 1005.0 |
| 20260506232415 | 58 | 202 | 1.7 | 4.3 | 0.05 | 0.19 | 0.19 | 92 | 1005.0 |
| 20260506231415 | 58 | 198 | 2.6 | 7.0 | 0.06 | 0.19 | 0.19 | 92 | 1005.0 |
| 20260506230415 | 58 | 218 | 2.6 | 6.1 | 0.07 | 0.18 | 0.19 | 92 | 1005.0 |
| 20260506225415 | 58 | 158 | 2.6 | 6.1 | 0.08 | 0.17 | 0.17 | 92 | 1005.1 |
| 20260506225346 | 58 | 202 | 2.6 | 6.1 | 0.08 | 0.16 | 0.16 | 91 | 1005.1 |
| 20260506223414 | 59 | 193 | 2.6 | 7.0 | 0.09 | 0.15 | 0.15 | 92 | 1005.1 |
| 20260506222854 | 59 | 206 | 3.5 | 11.3 | 0.08 | 0.14 | 0.14 | 91 | 1005.2 |
| 20260506221413 | 59 | 172 | 2.6 | 7.0 | 0.07 | 0.13 | 0.13 | 91 | 1005.4 |
| 20260506220414 | 59 | 183 | 3.5 | 8.7 | 0.05 | 0.11 | 0.11 | 91 | 1005.4 |
| 20260506215414 | 59 | 148 | 4.3 | 8.7 | 0.03 | 0.09 | 0.09 | 90 | 1005.5 |
| 20260506214415 | 59 | 200 | 3.5 | 8.7 | 0.02 | 0.08 | 0.08 | 90 | 1005.5 |
| 20260506213413 | 60 | 301 | 2.6 | 7.0 | 0.00 | 0.06 | 0.06 | 90 | 1005.5 |
| 20260506212414 | 60 | 301 | 3.5 | 10.4 | 0.01 | 0.06 | 0.06 | 90 | 1005.6 |
| 20260506211411 | 60 | 301 | 3.5 | 9.6 | 0.01 | 0.06 | 0.06 | 90 | 1005.7 |
| 20260506210412 | 60 | 212 | 3.5 | 7.8 | 0.02 | 0.06 | 0.06 | 89 | 1005.7 |
| 20260506205412 | 60 | 207 | 2.6 | 9.6 | 0.03 | 0.06 | 0.06 | 89 | 1006.0 |
| 20260506204413 | 60 | 201 | 3.5 | 10.4 | 0.03 | 0.06 | 0.06 | 89 | 1006.0 |